Wind_Speed
44 44 44 44 44 45 45 46 46 46 47 47 47 47 47 48 48 48 48 48 48 47 46 45 45 44 43 42 41 41 40 39 37 35 33 34 37 38 40 42 44 44 42 40 38 36 34 34 33 33 33 33 33 32 33 33 33 33 33 32 30 28 29 32 33 33 32 28 26 25 23 22 20 18 16 15 15 14 15 16 17 18 18 19 18 17 17 17
43 43 44 44 44 44 44 45 45 45 46 46 46 47 47 47 48 48 48 48 48 48 47 47 46 45 44 43 43 42 41 40 39 36 35 37 38 37 36 37 40 42 42 40 38 37 35 34 33 33 33 32 32 32 32 33 33 33 33 32 29 28 31 34 35 34 31 28 26 25 24 23 21 19 16 15 15 15 16 16 17 18 19 19 18 18 18 17
40 41 41 41 41 41 41 41 41 42 42 43 43 44 44 45 46 47 47 48 48 48 48 48 47 46 45 44 44 43 42 42 40 37 37 40 39 36 35 34 36 39 41 41 39 37 36 35 33 32 32 32 32 31 32 32 33 33 33 32 29 30 34 36 36 34 31 29 28 26 26 24 22 19 17 16 15 15 17 17 18 19 19 20 19 19 18 16
39 39 39 39 39 39 39 39 39 40 40 40 41 41 42 42 43 44 45 45 46 47 47 48 48 47 46 45 44 43 43 43 41 38 39 41 40 37 36 34 34 36 39 41 39 37 36 35 33 32 31 31 31 31 31 32 33 33 32 31 30 33 37 37 36 34 31 29 29 28 27 25 22 20 18 17 16 17 17 17 19 19 19 20 19 18 17 16
39 40 40 40 40 40 40 40 41 41 41 41 42 42 42 42 42 43 43 43 44 44 45 46 47 47 47 46 45 44 43 43 42 39 40 42 41 38 37 35 34 34 36 39 40 38 37 35 34 32 31 31 30 30 30 31 32 32 31 31 32 36 38 38 37 34 32 31 30 29 27 25 22 20 19 19 19 18 17 17 17 18 18 18 17 16 15 15
41 41 42 42 42 42 42 43 43 43 43 43 43 43 43 43 43 43 43 42 42 42 43 44 45 46 46 46 46 45 44 44 44 40 40 42 41 40 37 36 34 33 35 37 39 38 37 35 34 32 31 30 30 30 30 31 32 32 31 31 33 38 39 38 37 35 33 32 31 30 27 25 23 22 19 19 19 17 17 18 18 18 18 17 16 15 15 15
43 43 44 44 45 45 45 45 44 44 44 44 44 43 43 43 43 43 43 42 42 42 42 42 43 43 44 46 46 46 45 44 43 41 41 41 41 40 38 36 35 33 34 36 38 38 36 35 34 33 31 30 30 30 30 31 32 33 32 32 35 38 39 38 37 35 34 33 32 30 28 26 24 22 20 19 19 18 19 20 20 19 18 16 15 15 15 16
45 45 45 46 46 46 46 46 46 45 45 45 45 44 44 44 43 43 43 43 42 42 42 41 42 42 43 44 45 46 45 43 44 43 42 41 42 41 40 37 35 34 34 36 37 38 37 36 35 33 32 31 29 30 30 30 32 32 31 33 36 39 39 39 37 36 35 33 32 30 28 26 25 22 20 20 19 20 20 20 20 19 17 15 15 15 16 17
48 47 48 48 48 47 47 47 46 46 46 46 45 45 45 45 45 44 44 43 43 43 42 42 41 41 41 42 43 45 44 43 45 44 42 41 41 42 41 38 36 35 34 36 37 38 38 36 35 34 33 31 30 30 31 31 32 32 32 34 38 40 40 39 38 37 36 34 32 30 28 27 25 22 21 20 20 21 21 21 19 17 17 16 17 17 18 19
50 49 50 50 49 49 48 48 48 47 47 47 47 47 47 46 46 46 45 45 44 44 43 42 42 41 41 42 42 43 43 43 45 45 42 42 41 41 41 39 37 36 35 36 37 38 37 36 35 34 34 32 31 32 32 33 33 33 34 37 39 41 41 40 39 38 37 35 32 30 29 27 24 23 23 22 21 22 22 21 19 18 19 18 18 19 20 21
49 50 51 51 51 50 50 50 49 49 48 48 48 48 48 48 48 47 47 46 46 45 44 44 43 42 42 42 42 42 43 44 45 45 43 42 42 41 41 40 38 37 36 37 38 38 38 38 37 36 36 34 32 32 32 33 33 33 35 37 40 41 41 41 40 39 37 35 33 31 29 27 25 24 23 22 23 23 22 20 20 21 19 18 19 20 22 23
49 49 50 50 51 51 51 51 50 50 50 50 49 49 49 49 49 49 48 48 47 47 46 45 44 43 43 42 41 42 43 45 45 46 44 43 42 42 41 40 39 38 37 38 39 39 39 40 39 38 37 34 33 33 33 33 34 34 36 37 40 41 41 41 40 39 37 35 33 30 28 27 26 25 24 23 25 24 23 22 22 21 19 19 21 22 23 23
48 48 48 49 49 50 51 51 51 51 50 50 50 50 50 50 50 50 50 49 49 48 48 47 46 45 44 42 42 43 44 44 45 46 45 43 43 42 41 40 39 38 38 38 40 41 41 40 39 39 37 34 34 34 33 34 35 35 36 38 40 41 41 40 40 39 37 35 33 30 28 28 27 26 25 26 26 25 23 22 21 20 20 21 23 23 23 23
46 47 47 47 48 48 49 49 50 50 50 51 51 51 51 51 51 51 51 51 51 51 50 49 48 47 45 43 44 45 44 43 45 46 46 44 43 43 41 41 40 39 39 39 39 40 41 40 39 39 38 36 36 34 33 35 35 35 36 38 40 41 41 41 40 38 37 35 32 29 28 28 29 28 27 27 27 26 23 21 20 20 22 23 24 24 23 22
45 45 45 46 46 47 47 48 48 49 50 50 50 50 51 51 51 51 52 52 52 52 52 51 50 49 46 45 47 47 45 44 46 47 47 46 44 43 42 41 40 40 39 39 39 40 40 40 39 39 38 37 36 34 35 36 36 36 36 38 40 41 42 42 40 38 38 35 33 31 28 28 30 28 28 29 28 26 22 21 21 21 24 24 24 23 23 23
43 44 44 44 44 45 46 46 47 48 48 49 49 50 50 51 51 52 52 52 53 53 53 53 52 50 49 48 49 49 47 46 46 47 47 46 45 44 43 42 42 41 41 40 40 40 41 41 40 39 39 38 37 36 37 36 37 37 36 38 40 41 42 42 39 39 38 35 33 32 30 32 31 27 28 30 28 25 21 21 21 22 25 24 23 23 22 23
41 42 42 42 43 43 44 45 46 46 47 48 49 49 50 50 51 52 52 52 53 53 53 53 53 52 50 49 50 50 50 49 48 48 47 47 47 45 44 43 43 42 42 42 41 42 43 43 42 41 40 39 38 38 38 38 38 37 37 40 41 41 42 41 39 39 37 35 34 33 34 37 31 26 29 29 27 25 21 21 22 23 25 24 23 23 22 23
39 40 40 41 41 41 42 43 44 44 45 46 47 48 48 49 50 51 51 52 52 52 53 53 52 52 51 51 51 51 51 51 50 48 47 48 48 46 45 44 43 43 43 43 43 44 44 45 43 42 42 41 40 40 39 38 38 37 38 40 41 41 41 40 39 39 37 37 37 35 37 37 31 28 31 28 26 23 20 21 22 24 25 23 23 23 23 23
38 38 38 38 39 40 40 41 42 42 43 44 45 46 47 48 49 49 50 50 51 51 51 52 51 52 52 52 52 51 51 51 51 50 49 48 48 47 45 44 44 44 44 44 44 44 45 45 44 45 45 43 41 39 38 39 39 38 38 39 39 39 40 40 40 39 38 38 37 36 37 37 31 30 31 28 26 22 20 22 23 24 24 23 23 23 24 24
38 37 37 37 37 38 39 39 40 41 42 43 43 44 45 46 47 48 49 49 50 50 51 51 51 52 52 52 51 51 51 52 52 51 50 48 49 48 47 45 44 44 45 45 45 45 45 45 46 46 44 41 40 39 39 41 39 37 37 37 38 39 40 41 39 38 38 38 38 38 37 35 31 30 30 28 26 22 21 23 25 25 24 23 23 24 25 24
38 37 36 36 36 36 37 38 39 39 40 41 42 43 44 45 46 47 47 48 49 50 50 50 51 52 51 51 50 50 51 52 52 52 51 50 49 48 48 46 45 44 45 46 46 46 46 46 46 44 42 41 39 38 40 39 37 36 36 37 38 39 41 41 39 39 38 39 40 38 35 33 30 30 30 28 25 23 23 25 26 25 24 23 22 23 24 23
38 37 36 35 35 35 35 35 36 37 38 39 40 41 42 43 44 45 46 47 48 48 49 50 50 50 49 49 49 50 50 51 51 52 51 51 50 49 48 47 46 45 45 46 47 46 47 47 46 44 43 41 39 38 39 37 36 36 35 37 38 40 43 42 40 40 39 41 41 37 34 32 29 29 30 28 25 24 24 24 26 25 23 23 23 24 25 24
37 36 34 34 33 33 33 33 34 34 35 36 37 38 39 40 42 43 44 45 46 47 47 48 48 47 47 48 48 49 49 49 50 51 51 50 50 49 48 47 46 46 46 46 46 47 48 47 47 46 43 40 39 39 39 39 38 37 36 37 38 41 43 42 41 41 40 41 40 37 34 32 29 29 30 28 26 26 25 24 25 24 22 23 23 24 24 24
35 34 32 31 31 30 31 30 31 32 32 33 34 35 36 37 39 40 42 43 44 45 45 45 46 45 45 47 48 49 49 49 49 50 50 49 49 49 48 46 45 46 46 45 45 46 45 46 46 44 40 40 41 40 39 39 38 38 38 36 38 41 42 41 42 41 40 40 39 36 34 32 30 30 30 28 27 28 27 24 24 23 22 23 24 24 24 23
32 31 30 29 28 28 28 28 28 29 29 29 30 31 32 34 36 38 39 40 41 42 43 44 43 41 43 46 48 49 48 49 49 50 50 49 48 48 47 46 46 45 44 44 44 44 44 46 43 40 40 41 41 40 39 39 38 38 38 38 40 42 41 42 42 40 40 40 38 35 34 32 30 30 31 29 28 29 27 25 24 24 24 24 25 25 24 24
28 27 27 25 25 25 25 25 25 25 24 24 25 26 28 31 33 35 36 36 37 39 41 42 40 39 42 46 47 47 47 48 48 49 49 48 47 46 45 45 45 43 42 43 43 42 45 46 41 40 42 41 40 39 39 38 38 38 38 39 41 41 40 42 42 38 37 39 37 34 32 30 27 29 32 32 29 28 26 25 25 25 26 26 26 26 25 24
25 24 24 23 22 21 21 21 20 19 18 19 20 21 24 26 27 30 30 29 31 34 37 39 39 39 42 44 44 45 46 46 47 48 48 46 46 46 45 44 43 43 43 43 43 44 47 45 41 42 42 40 40 39 38 38 37 37 38 38 38 37 38 40 40 37 36 39 38 34 32 32 29 28 31 32 30 28 26 25 26 27 27 28 27 26 25 24
23 22 21 20 19 18 17 15 15 13 13 14 16 17 19 20 21 23 23 24 27 29 32 35 37 39 42 43 43 43 45 44 45 46 46 45 45 44 43 42 42 42 42 41 43 46 46 42 41 42 40 40 40 39 38 36 36 38 37 36 36 35 36 38 38 38 39 40 37 34 34 34 32 29 30 31 30 28 27 27 28 29 29 29 28 26 25 23
22 21 20 18 17 15 13 11 10 9 10 13 16 17 17 17 18 19 20 22 23 26 29 31 34 38 40 42 43 43 42 41 43 43 43 44 44 42 42 42 41 40 39 38 40 44 43 39 39 38 36 37 39 39 38 36 37 37 33 33 35 34 36 39 40 39 41 40 36 35 34 31 29 28 29 31 31 30 28 28 29 30 30 30 29 26 24 23
21 20 19 18 16 14 11 10 9 9 10 13 16 18 17 16 17 18 19 20 20 23 27 29 33 36 39 41 42 42 40 42 44 43 42 42 42 41 42 41 39 40 40 38 39 43 41 38 38 37 37 37 37 37 38 39 39 35 32 34 35 35 36 39 40 40 41 40 36 34 34 31 27 28 30 32 33 31 29 29 31 31 31 30 28 26 24 22
22 21 21 19 17 15 13 12 10 9 10 14 17 17 16 17 18 19 19 20 19 21 24 29 32 35 37 39 40 40 42 44 44 43 43 43 42 42 41 40 40 41 40 40 42 44 40 38 40 40 40 40 38 37 38 41 40 37 36 36 36 37 38 39 39 41 42 38 33 34 35 32 29 30 32 32 32 31 30 31 32 32 31 29 26 25 23 22
24 23 22 21 19 16 15 14 12 10 12 16 19 18 17 17 19 20 20 21 21 20 24 29 33 34 35 36 38 39 42 43 43 43 44 44 44 44 43 42 44 45 44 44 45 44 39 41 43 42 41 41 40 41 41 41 42 42 41 39 39 39 40 41 41 42 41 34 32 35 34 32 31 32 32 31 32 31 31 32 32 31 29 27 25 24 23 21
25 24 23 21 19 18 16 15 14 14 16 18 19 18 18 18 20 21 22 25 23 21 26 32 35 36 36 38 40 39 40 41 41 42 42 42 42 42 42 42 43 44 43 43 46 44 42 44 45 43 43 42 42 44 43 42 43 44 44 44 42 41 42 44 43 44 41 36 36 36 33 33 35 34 34 33 32 32 32 32 31 30 29 27 26 24 22 21
26 25 23 21 20 18 17 16 16 16 17 19 18 17 18 18 19 21 24 28 25 21 28 34 35 36 37 39 40 40 40 40 40 41 40 41 41 41 42 43 42 41 39 39 41 42 43 46 46 46 45 44 42 42 40 38 38 40 42 43 42 42 44 44 44 42 37 36 39 38 34 34 34 34 36 35 33 33 33 32 31 30 29 27 26 23 21 20
26 24 22 21 20 18 18 18 18 18 18 18 18 19 20 17 17 20 26 31 26 21 29 35 35 36 37 38 39 39 39 38 39 40 40 41 41 40 42 42 41 40 39 39 38 39 41 42 43 44 44 43 41 39 38 36 34 35 37 39 41 41 41 43 44 40 35 35 38 38 36 34 33 34 36 35 34 34 33 32 32 30 29 27 25 22 20 20
26 24 22 20 18 18 20 20 20 21 19 18 20 22 22 19 17 22 28 31 26 22 30 36 35 37 38 38 39 39 38 37 38 38 38 38 38 39 39 39 39 39 38 39 38 38 38 37 40 41 39 38 37 36 36 35 35 35 36 38 40 41 41 43 44 42 40 39 35 34 36 36 36 37 37 36 35 35 35 34 33 31 29 27 25 23 21 21
26 24 21 19 18 19 21 21 22 22 20 20 22 23 22 20 20 24 28 30 27 24 32 38 37 38 38 38 39 39 37 37 38 36 35 36 37 38 38 36 36 35 35 37 37 37 35 34 37 38 35 35 35 33 33 34 36 37 37 38 41 44 45 44 43 43 43 38 32 32 35 38 39 39 39 39 37 37 37 35 33 32 30 28 27 24 23 23
25 23 20 18 19 20 21 21 21 21 20 21 23 22 22 21 22 26 29 30 28 25 31 39 39 39 39 38 38 38 36 36 38 36 34 35 35 37 38 35 33 33 34 36 36 35 33 31 32 33 34 34 34 34 35 36 36 35 36 39 42 45 47 44 42 42 41 38 35 33 34 36 38 39 39 39 38 38 37 35 34 32 30 29 28 26 25 25
24 22 19 18 19 19 19 19 19 20 21 23 23 22 23 22 23 28 30 29 29 25 28 37 41 40 40 39 37 37 36 35 36 34 33 34 34 35 38 36 34 34 34 34 34 34 33 30 29 32 33 33 35 37 38 39 38 37 39 41 41 42 44 42 41 39 37 36 35 32 33 36 37 38 39 39 38 38 36 36 35 33 32 31 30 29 28 27
23 21 19 18 18 17 17 17 18 19 20 22 24 23 24 23 24 27 29 28 28 25 25 35 42 41 40 41 39 38 37 33 33 33 32 33 34 33 37 37 35 35 35 34 34 33 33 31 30 32 33 34 37 38 37 38 39 40 42 42 42 44 43 41 40 37 33 33 34 32 32 35 36 37 39 40 39 37 36 37 36 35 34 34 33 32 30 28
22 20 18 18 18 17 16 16 16 18 20 22 24 24 25 25 25 26 28 28 25 23 24 32 40 41 40 40 39 39 37 34 33 34 31 31 33 33 35 36 36 36 37 36 35 33 33 31 30 32 33 34 36 36 36 37 37 38 39 40 42 44 43 41 41 40 34 32 34 33 31 34 36 36 39 41 39 37 37 37 37 36 36 35 34 32 30 29
22 19 19 19 18 17 16 16 17 19 21 23 24 24 24 25 23 23 27 27 21 19 23 30 38 41 39 37 37 37 37 33 33 34 30 29 32 32 33 35 35 36 36 35 35 34 32 31 30 30 31 32 33 33 34 34 35 36 36 37 39 39 40 40 39 39 37 34 34 32 32 35 35 37 38 38 37 37 37 37 36 36 35 34 33 32 30 29
21 20 20 19 18 17 18 19 20 22 23 23 23 23 22 21 19 21 25 24 17 17 22 28 36 41 40 39 37 36 35 33 33 33 30 29 32 32 32 34 35 36 35 34 34 34 32 31 30 30 30 30 30 30 31 32 33 35 36 37 37 36 38 37 35 36 37 35 34 32 34 36 35 35 36 35 35 36 36 36 36 35 34 34 34 33 31 29
22 22 21 20 19 20 21 22 23 24 24 24 24 22 21 19 18 19 21 20 19 20 23 26 33 40 41 41 38 35 34 34 34 34 31 31 32 32 31 33 34 34 34 34 33 33 33 32 31 31 32 31 31 31 33 34 35 35 36 37 37 36 36 35 33 34 34 35 35 32 34 37 35 34 35 34 35 36 35 36 36 34 34 35 34 33 30 28
24 23 21 20 21 22 23 24 24 25 26 26 25 23 19 16 16 17 18 20 22 23 23 27 33 38 40 41 40 36 34 36 36 34 32 31 32 32 32 32 33 33 33 32 32 32 33 33 31 31 32 33 33 34 34 35 36 34 33 34 36 35 35 33 32 32 32 32 33 32 32 35 35 34 35 35 35 34 34 35 34 33 33 33 32 29 27 25
25 23 21 22 23 24 25 25 26 27 30 30 27 22 17 16 18 17 18 21 24 23 24 29 34 37 39 40 40 37 34 36 36 34 33 32 32 32 32 33 34 34 32 32 32 33 33 33 32 31 29 29 31 33 34 33 33 32 32 33 34 33 32 32 31 32 30 29 30 31 31 30 30 30 31 32 33 32 32 32 31 31 30 30 28 25 23 23
25 23 22 22 24 26 26 26 27 30 35 33 26 19 16 19 21 20 22 23 25 24 26 30 34 36 37 38 38 36 34 35 36 34 32 32 32 31 32 33 33 34 32 32 33 33 33 34 35 33 31 31 32 33 34 32 32 32 32 31 31 31 31 31 29 29 29 27 27 28 28 28 27 27 27 27 28 28 29 29 28 27 27 26 24 22 22 23
25 23 23 24 25 27 28 28 29 33 36 34 26 17 16 20 21 20 25 28 27 27 27 29 31 33 35 36 35 35 36 35 34 33 31 31 32 32 31 32 32 33 33 33 33 33 33 33 35 34 33 33 33 32 33 32 32 32 30 29 29 29 30 31 30 29 28 25 24 25 26 27 27 27 26 26 26 25 25 25 25 24 24 23 21 21 22 23
24 22 23 25 26 27 28 30 31 34 35 34 28 18 15 21 22 22 30 33 28 27 29 28 28 30 32 33 33 34 36 34 33 32 30 30 31 31 31 32 33 33 34 34 34 34 33 33 33 33 33 32 31 31 32 32 32 31 30 29 29 29 29 30 30 29 28 27 25 25 25 25 25 25 25 25 25 24 24 24 23 22 22 21 21 22 22 23
24 22 23 26 28 27 28 30 32 33 33 32 28 20 15 20 23 24 31 33 27 26 29 29 28 29 31 32 32 33 32 30 30 30 29 29 29 29 30 30 31 32 33 33 33 33 32 32 32 32 32 31 31 31 32 32 31 31 30 30 30 29 29 28 28 29 28 27 27 26 25 23 23 23 23 23 24 24 23 23 22 21 21 21 21 22 22 23
25 23 23 26 28 27 28 29 30 31 30 28 27 23 16 19 24 25 30 33 28 25 28 30 28 30 34 35 35 33 30 29 28 27 26 26 25 25 26 25 25 28 29 30 31 31 31 31 31 31 32 32 31 31 31 32 32 31 31 31 31 30 29 28 28 28 27 26 25 25 24 22 21 21 21 21 23 23 22 22 21 21 21 22 22 22 22 23
25 23 24 25 26 26 27 28 28 28 27 25 25 23 17 17 23 25 28 32 30 27 29 31 29 30 34 35 35 35 32 30 29 26 24 24 22 23 24 22 22 24 25 27 28 28 29 30 30 30 31 31 31 30 30 31 31 32 32 32 31 31 30 30 29 28 27 26 24 23 22 20 20 21 21 21 22 22 22 22 22 22 22 23 23 22 22 23
Wind_Direction
256 255 255 254 253 252 252 252 252 252 251 251 251 251 251 251 252 252 252 252 252 252 252 253 254 254 254 254 254 254 254 253 252 252 250 250 249 248 246 245 244 244 245 245 246 246 246 246 245 243 241 240 240 240 239 238 236 234 233 230 226 220 219 222 223 221 221 220 220 222 222 223 222 219 216 213 215 217 220 224 228 234 239 244 248 252 254 258
256 255 254 254 253 252 252 252 252 252 252 251 252 251 251 251 251 251 251 251 251 251 251 251 252 252 253 253 253 253 253 253 253 251 249 250 250 250 249 248 245 243 243 244 244 245 245 245 244 243 241 239 238 238 237 236 234 232 230 227 222 218 219 222 222 221 220 219 220 221 221 222 220 218 216 215 216 217 222 225 229 234 239 244 247 250 254 259
256 255 254 253 252 252 251 251 251 251 251 251 251 251 251 251 251 251 251 251 251 251 250 251 250 251 251 252 252 253 252 252 251 249 249 251 251 251 251 250 247 244 242 242 242 243 244 245 245 243 242 240 238 236 236 234 233 231 228 224 218 216 219 221 221 220 218 218 219 220 220 220 218 216 213 215 217 217 223 228 232 236 240 243 247 250 256 262
255 254 253 252 251 251 251 251 251 251 250 250 250 250 250 250 250 250 250 250 250 250 249 249 249 249 249 250 250 251 252 252 250 247 248 251 251 250 251 250 248 244 242 240 239 241 242 243 243 243 241 239 237 235 234 232 231 229 226 221 215 215 218 220 220 218 217 218 219 219 220 220 218 215 212 214 217 219 222 228 232 235 239 243 247 253 258 265
256 254 253 252 251 251 251 251 251 251 251 251 250 250 250 250 249 249 249 249 249 249 248 248 248 248 248 248 248 249 249 249 248 246 247 250 250 250 249 249 248 246 243 240 238 238 240 241 242 242 241 239 236 234 233 230 229 227 223 219 215 216 218 218 219 218 217 218 218 219 220 220 218 216 215 214 219 223 222 225 229 233 238 243 248 256 262 267
257 255 254 253 253 252 252 252 252 252 251 251 250 250 250 249 249 248 248 248 248 248 247 247 247 246 246 247 247 247 246 246 246 245 245 248 250 249 249 249 248 246 244 241 238 237 238 240 240 240 240 238 235 233 231 228 226 223 219 216 215 217 218 217 217 217 217 218 219 220 220 220 219 218 217 217 223 229 229 231 235 237 241 245 251 259 263 265
257 256 255 254 254 253 253 252 252 251 251 250 250 249 249 248 248 248 247 247 246 246 246 246 246 245 245 245 245 245 245 245 245 243 242 245 248 248 247 247 246 245 243 240 238 236 237 238 239 239 238 236 234 232 230 227 224 220 216 213 215 217 218 217 217 217 217 218 220 220 220 219 219 218 217 220 226 231 233 238 242 243 245 249 253 256 259 263
257 256 255 254 254 253 252 252 251 251 250 250 249 249 248 248 247 247 247 246 245 245 245 245 245 244 244 244 243 244 243 243 243 242 241 242 245 246 246 245 245 243 241 239 236 235 234 235 236 236 235 233 232 231 229 226 223 218 213 212 215 217 217 217 217 217 217 218 219 220 220 220 219 219 218 220 225 230 234 239 244 248 250 250 250 251 256 261
258 257 255 255 254 254 253 252 252 251 250 250 249 249 248 248 247 247 246 245 244 244 243 243 243 243 243 243 242 242 242 241 242 241 240 240 241 243 245 244 244 242 239 237 235 233 233 233 234 234 233 231 228 228 227 225 222 216 210 211 215 217 217 217 217 217 218 218 219 219 219 220 220 219 220 222 226 230 234 237 243 248 249 246 246 250 254 258
260 258 256 255 255 254 254 253 252 252 251 251 250 249 249 248 247 246 246 245 244 243 242 242 242 242 242 242 242 241 239 239 241 241 238 238 238 239 241 241 241 240 238 236 234 232 232 233 233 233 232 229 226 226 225 224 221 214 210 210 214 216 216 217 217 217 217 218 218 218 219 220 220 220 221 222 226 231 235 238 241 242 243 243 246 249 253 256
262 260 258 257 256 255 254 253 253 252 252 251 250 250 249 248 247 246 245 244 243 243 242 241 241 241 241 241 241 240 238 237 239 239 237 236 236 236 237 238 238 237 235 235 232 230 229 230 230 230 230 228 226 225 225 224 221 215 211 211 214 216 216 217 218 218 218 218 218 218 219 220 220 221 221 223 226 231 235 238 239 241 242 244 245 247 250 253
265 263 261 259 257 256 255 254 253 252 251 251 250 249 249 248 247 247 246 244 243 242 241 241 240 240 241 240 240 239 237 236 237 238 236 234 234 234 234 235 236 235 234 233 230 228 228 229 229 229 229 227 225 224 223 223 220 216 213 213 214 216 217 218 220 219 219 219 218 218 220 221 221 222 222 224 228 231 234 236 239 243 243 242 243 245 249 252
266 264 263 261 259 257 256 255 254 252 251 250 250 249 248 247 247 246 245 244 243 242 241 240 240 240 240 240 239 239 237 236 235 236 235 233 232 232 231 232 233 233 232 231 230 228 227 228 228 228 228 224 223 223 222 223 221 217 215 215 215 217 218 219 220 220 220 220 218 217 220 224 223 222 224 225 229 231 232 235 239 243 242 240 241 244 249 252
267 265 263 262 260 258 257 255 254 253 252 250 250 249 248 247 246 245 245 244 243 242 241 240 239 239 239 239 238 238 237 235 234 234 233 231 230 230 229 229 230 231 231 231 230 228 227 228 228 228 227 224 223 222 221 221 220 217 215 216 217 218 219 219 220 220 220 220 219 216 217 226 225 220 224 227 230 232 232 234 237 239 239 238 240 244 249 252
269 267 264 262 261 259 257 255 254 253 251 250 249 248 247 246 245 244 244 243 242 241 241 240 239 238 238 237 238 238 236 234 233 232 232 230 228 228 227 227 228 228 229 229 228 226 226 227 229 230 227 225 224 221 220 220 219 217 215 217 218 219 220 219 218 219 220 219 219 216 210 221 224 217 223 228 230 232 231 233 233 234 236 237 241 246 250 254
270 268 266 263 261 259 258 256 254 252 251 250 248 247 247 246 245 244 243 242 242 241 240 240 239 238 237 237 237 237 235 233 232 232 231 229 228 226 225 225 225 226 226 226 225 224 223 224 226 227 226 224 223 221 220 219 219 217 214 217 219 220 222 221 218 219 220 218 218 215 207 217 223 217 224 229 231 232 229 231 230 231 235 237 242 247 251 254
272 269 267 264 262 260 258 256 254 252 251 249 248 247 246 245 244 243 243 242 241 241 240 239 239 238 237 237 237 236 234 233 232 231 230 228 227 225 224 223 224 224 224 224 222 221 221 222 223 223 223 222 221 220 220 219 220 217 214 217 218 219 222 223 220 219 220 218 219 216 210 218 222 221 228 231 233 233 230 231 230 231 236 237 242 248 251 253
272 270 268 265 263 261 259 257 255 253 251 250 248 247 246 245 244 243 243 242 241 240 240 239 239 238 238 236 236 235 234 232 231 231 230 228 227 225 222 222 222 222 222 222 221 220 220 221 221 222 222 221 219 219 220 219 220 218 215 218 219 219 222 224 222 220 218 217 218 216 215 221 223 225 231 233 234 234 231 231 229 231 236 239 245 250 250 251
273 270 268 266 264 262 260 258 256 254 252 250 249 248 247 246 245 244 243 242 241 241 240 239 238 238 237 235 234 234 232 231 230 229 228 228 227 225 222 221 220 221 221 220 220 220 220 220 221 221 222 221 220 219 218 218 218 217 216 218 219 219 222 223 222 220 217 217 218 218 218 222 223 226 231 233 234 231 227 229 229 232 236 239 245 247 247 247
274 271 269 267 264 262 261 258 257 255 253 251 250 249 247 246 245 244 243 242 241 240 239 238 237 236 235 234 233 232 230 229 228 228 226 226 226 225 222 220 219 220 220 219 219 219 219 220 220 222 222 222 220 217 217 218 218 215 215 217 217 218 221 223 222 220 217 218 219 219 219 220 220 226 231 231 230 225 222 227 229 231 234 237 239 240 241 243
274 273 270 268 265 263 261 258 257 255 253 252 250 249 247 246 245 244 243 241 240 239 238 236 236 235 234 232 231 230 229 227 227 226 225 224 225 225 223 220 219 219 219 219 218 218 218 219 220 221 221 221 219 217 218 218 216 214 213 215 215 216 220 221 220 219 217 218 220 219 219 220 219 225 231 229 225 221 220 226 229 228 229 230 231 235 239 245
275 273 271 269 266 263 261 258 256 254 252 251 249 248 247 246 245 243 242 241 240 238 237 235 234 233 232 230 228 227 227 225 225 225 224 223 223 224 223 221 219 218 218 219 218 217 218 218 218 219 219 218 217 217 218 216 213 212 211 213 213 215 219 220 218 218 217 218 220 219 220 221 218 222 230 229 223 220 220 226 230 229 227 228 230 236 243 250
274 273 271 268 266 263 260 257 255 253 252 250 248 247 245 244 243 242 241 240 239 237 236 234 232 230 228 227 225 225 224 222 222 223 223 222 222 223 222 221 219 217 217 218 218 218 219 219 218 218 218 216 215 215 215 214 212 209 208 211 212 215 219 220 218 218 218 219 221 220 220 220 218 220 225 227 223 221 220 225 231 231 230 231 234 240 247 252
273 271 268 266 263 260 258 256 254 252 251 249 247 246 245 244 243 242 241 239 238 237 235 232 230 227 224 223 223 222 220 219 219 220 221 220 220 221 221 220 219 218 217 217 217 218 219 220 220 218 217 215 215 214 214 214 212 209 207 207 211 216 219 221 220 218 219 221 220 220 220 219 218 219 222 224 223 222 221 223 228 230 230 233 237 244 248 249
269 267 264 261 259 257 255 254 252 251 249 248 246 245 244 243 242 242 241 239 236 235 233 231 228 223 221 221 221 219 217 217 217 217 218 218 218 219 218 218 218 218 217 217 217 217 218 219 219 218 217 216 215 214 213 212 211 210 207 206 211 214 216 220 221 219 220 223 220 218 221 221 219 220 223 223 223 223 221 220 223 226 230 234 239 243 245 246
264 260 258 256 254 253 252 250 250 249 247 246 244 243 242 241 241 240 239 239 236 232 230 228 224 219 218 219 218 216 215 215 215 215 215 215 215 216 216 217 217 217 216 216 216 217 217 217 214 215 216 215 215 214 213 211 210 210 208 207 211 212 213 218 221 220 222 225 220 216 220 223 221 223 225 224 223 223 220 218 220 225 230 234 238 241 242 244
255 252 249 248 247 246 245 244 246 246 244 243 240 236 235 235 235 236 236 237 236 232 228 225 219 215 216 215 213 213 213 212 212 212 212 212 212 212 213 214 215 216 215 214 215 216 217 214 212 214 214 213 214 214 213 211 209 209 208 208 210 210 212 216 219 218 221 223 220 215 216 219 220 223 226 226 223 222 218 215 218 223 228 232 235 237 239 241
245 241 240 239 236 235 235 236 239 239 236 234 226 220 222 222 224 229 230 231 233 229 224 222 216 211 212 211 209 209 210 209 210 211 209 208 209 210 210 211 212 214 215 214 215 216 215 213 213 214 213 212 212 212 211 210 210 210 208 208 208 207 210 214 217 217 219 221 220 216 214 217 221 223 225 225 222 220 215 213 217 222 227 231 233 235 237 240
233 231 229 225 223 223 220 220 224 224 224 223 213 208 211 211 212 218 222 224 227 223 217 215 210 206 206 207 205 204 203 203 207 208 206 206 206 206 208 209 208 210 210 211 216 218 214 210 212 212 212 214 214 212 209 207 210 210 207 209 209 206 207 211 213 215 219 220 219 218 214 214 219 222 225 225 221 218 215 214 217 222 226 229 231 234 236 240
222 219 214 211 210 207 200 202 209 212 219 216 207 206 208 207 208 213 215 213 215 218 212 207 204 201 201 202 201 198 196 198 202 202 202 205 204 203 205 206 206 207 206 204 211 216 211 207 209 208 207 211 212 212 210 208 208 205 205 209 209 206 207 210 212 213 217 217 216 217 212 208 213 218 222 224 221 218 215 216 219 222 226 229 232 235 237 242
212 208 205 203 201 196 193 197 202 206 211 205 198 198 201 206 209 210 208 199 200 210 207 199 198 197 197 197 196 194 192 195 198 198 199 200 200 201 202 202 202 205 204 202 208 211 206 204 207 206 206 207 206 207 209 210 208 203 202 207 208 205 204 208 211 213 216 214 213 215 209 204 211 217 220 222 219 218 216 217 220 223 226 230 232 235 239 244
204 201 201 201 199 196 196 197 197 195 195 192 189 192 202 214 212 205 200 192 194 204 200 194 192 191 192 192 191 192 193 195 195 195 198 198 198 198 199 200 202 203 202 203 208 208 202 203 205 204 205 206 204 205 207 208 207 205 203 205 207 205 203 205 209 213 214 211 213 215 207 203 212 216 219 221 218 217 219 219 221 223 227 230 232 235 240 244
200 199 201 202 201 200 201 200 197 192 190 190 192 201 212 219 214 206 199 195 197 199 192 190 188 186 185 185 186 188 192 195 195 195 196 197 198 198 199 201 202 204 203 203 206 205 201 203 204 203 204 204 205 209 210 209 208 208 206 206 206 206 206 206 209 213 212 210 215 214 204 205 214 214 216 221 220 218 220 220 221 224 227 230 232 235 240 245
198 198 200 203 203 204 205 205 203 198 195 195 199 208 211 210 207 204 201 198 200 196 187 186 186 184 182 182 183 184 188 193 195 195 196 195 196 197 199 201 202 202 204 206 208 206 204 205 204 203 204 203 205 209 210 211 211 209 207 206 207 208 210 210 210 212 211 212 217 212 204 208 215 216 215 218 219 219 220 221 224 227 229 231 233 236 243 249
197 197 199 201 204 206 208 209 208 207 206 203 203 204 203 203 203 201 200 199 199 193 185 183 182 181 181 181 181 182 185 191 192 194 196 196 196 196 199 201 201 201 202 205 208 208 210 211 208 206 205 203 204 206 206 204 206 209 208 207 207 207 210 211 211 210 209 214 218 213 209 210 212 216 216 216 218 220 222 224 227 230 232 235 238 240 247 253
196 197 200 202 205 209 212 214 213 214 217 212 206 202 200 204 204 200 200 199 197 189 181 180 179 180 181 181 180 181 185 188 190 192 196 197 197 198 199 201 201 201 201 203 206 206 207 211 211 209 207 205 203 205 205 201 201 205 207 209 209 207 208 210 209 209 210 216 219 216 215 214 212 215 217 217 219 220 222 225 228 232 235 239 243 245 250 255
197 199 202 204 209 213 215 216 216 217 217 207 199 196 198 202 202 200 199 198 198 188 178 179 179 179 181 182 182 184 184 185 187 190 193 193 196 198 199 200 201 201 203 204 206 205 204 210 211 207 206 206 203 202 202 201 203 203 205 209 210 210 213 209 206 211 214 216 219 217 218 217 215 216 217 219 220 221 223 226 230 234 237 242 245 248 253 256
198 200 203 207 213 216 216 216 215 212 206 196 190 188 192 196 198 199 197 196 197 189 178 180 180 180 181 182 185 186 184 185 187 189 191 192 195 198 198 198 198 199 202 205 206 204 203 210 211 205 204 204 203 203 200 200 203 203 204 209 210 212 216 211 207 211 213 215 219 219 219 221 220 219 220 221 222 223 225 228 231 235 239 244 247 250 254 256
197 199 204 210 213 213 211 210 206 198 191 186 184 184 187 191 194 196 195 194 195 193 184 182 182 183 182 181 185 189 187 186 187 188 191 192 195 198 198 196 194 196 200 202 204 203 201 204 205 203 203 202 203 205 203 201 199 198 204 209 209 212 216 214 213 213 211 213 219 219 218 220 222 222 222 222 224 226 227 231 234 238 241 245 247 250 255 257
195 199 205 209 207 203 199 197 193 187 181 178 179 182 186 190 192 193 193 192 193 195 192 185 184 186 185 181 184 188 188 188 189 190 192 194 195 197 198 196 193 193 196 197 200 200 198 199 202 201 200 202 205 206 204 203 200 199 203 205 205 209 212 212 215 215 210 212 219 219 219 221 222 222 223 224 226 227 230 233 235 238 241 243 246 251 256 258
193 196 199 199 195 191 188 185 180 176 174 175 178 182 187 190 190 190 191 190 190 194 196 190 187 189 189 186 185 186 187 189 190 190 192 195 195 196 197 197 194 192 193 194 194 195 195 195 199 201 200 202 206 205 203 203 203 203 205 206 206 208 209 212 215 215 213 215 219 219 222 226 224 222 223 225 226 228 231 233 235 237 240 242 247 253 257 259
190 190 189 189 186 180 176 171 168 169 170 173 177 181 184 186 189 192 191 191 196 199 197 193 191 191 192 190 188 187 188 190 191 191 191 193 194 195 196 197 195 193 193 192 191 192 193 193 195 200 201 203 205 203 202 202 202 203 204 207 210 211 212 215 219 221 220 222 224 221 223 228 226 223 224 226 227 229 232 234 237 239 242 246 251 255 258 260
184 181 182 183 176 171 169 164 162 166 168 171 174 175 175 177 185 192 190 192 206 210 199 194 192 191 192 193 192 189 189 190 190 190 191 193 193 194 194 195 195 193 190 190 191 191 191 191 192 195 199 203 203 200 200 201 201 201 201 205 209 212 215 217 221 226 226 226 227 225 226 230 229 228 229 229 230 231 233 236 238 241 245 250 254 256 258 260
177 176 177 176 170 168 167 163 165 168 168 169 167 160 157 163 178 191 192 200 216 216 206 197 192 191 192 194 194 190 188 189 187 186 188 191 191 191 192 193 195 193 188 187 190 191 190 189 191 194 196 199 200 198 199 200 199 199 200 202 204 208 213 214 218 227 229 227 227 226 229 233 234 233 234 234 234 235 237 240 243 246 250 253 256 258 260 261
172 172 173 171 168 166 166 165 170 171 166 163 156 146 145 159 178 192 196 202 208 209 205 197 191 190 191 194 194 190 188 188 185 184 186 186 186 188 188 190 193 191 187 186 188 191 192 188 188 193 196 197 197 197 200 200 198 198 199 201 203 205 208 209 214 222 226 226 225 225 229 234 236 236 236 237 238 239 241 244 247 249 251 254 256 259 260 260
168 169 169 169 166 165 166 168 170 168 162 157 148 138 143 157 163 167 170 181 191 193 191 190 188 188 190 191 191 188 185 185 183 183 184 182 183 185 185 188 191 188 185 185 187 190 192 191 189 190 194 197 197 199 201 200 197 197 199 200 202 204 205 207 213 220 226 228 226 226 228 231 235 237 236 238 239 240 242 244 246 248 251 253 254 255 255 254
165 166 168 168 165 165 166 166 167 164 161 157 145 135 144 149 145 140 142 160 177 178 178 183 186 188 190 189 187 185 182 180 180 180 181 180 181 183 183 186 188 187 184 185 189 189 190 193 193 191 192 196 198 201 203 201 198 199 199 199 202 204 204 206 210 217 224 227 227 228 229 229 232 235 235 237 239 240 243 245 247 248 249 250 250 249 249 251
162 163 167 166 165 166 165 164 166 165 164 163 153 140 147 150 140 131 135 149 164 167 170 180 187 189 190 187 185 184 180 177 177 177 177 179 180 180 181 182 184 186 185 186 189 189 189 193 195 195 197 198 199 202 204 203 201 200 200 200 203 206 207 208 211 214 219 224 226 229 230 229 231 234 235 237 239 240 242 244 244 243 243 243 243 243 245 248
159 161 166 164 163 166 165 165 167 166 167 170 164 148 145 151 143 132 136 144 153 159 163 171 179 182 182 182 181 180 178 176 175 174 173 176 178 177 178 181 182 184 186 188 190 190 190 194 196 196 200 202 202 202 204 205 203 202 202 203 206 211 213 215 218 221 224 227 228 230 232 232 233 235 237 238 239 239 239 238 237 235 235 237 237 240 244 247
155 158 164 163 163 166 167 166 168 168 169 172 169 156 147 154 150 137 137 141 145 151 157 163 167 167 166 168 170 170 170 170 169 169 169 172 177 177 178 181 182 183 184 187 191 192 192 196 198 197 201 204 205 204 205 206 206 205 206 207 209 213 217 219 221 224 227 229 230 231 234 235 236 237 236 236 236 235 234 233 232 231 231 233 235 239 242 244
152 156 163 165 164 166 167 168 169 169 168 170 171 164 153 154 156 145 138 142 144 144 150 157 161 160 157 157 158 160 161 162 164 168 169 170 173 174 175 180 182 183 184 185 188 192 194 196 200 200 202 206 207 206 206 207 207 208 209 210 212 214 216 219 221 224 227 229 231 233 235 235 236 237 236 235 234 233 231 230 229 229 231 233 236 239 240 242
150 155 162 165 165 166 167 168 169 168 167 167 168 167 158 154 160 155 145 146 147 142 143 150 155 157 158 158 158 161 164 165 165 166 168 168 168 165 167 173 178 180 183 183 184 188 192 197 202 204 204 207 209 209 209 209 209 211 211 212 214 216 218 221 223 226 229 230 232 235 237 235 234 233 233 232 232 232 231 231 231 231 233 236 237 238 240 244
Height
5727 5728 5729 5730 5731 5732 5734 5735 5736 5737 5739 5740 5742 5743 5745 5746 5748 5750 5751 5753 5755 5757 5759 5761 5762 5764 5766 5768 5769 5771 5773 5775 5776 5778 5778 5779 5780 5782 5784 5787 5789 5792 5794 5797 5799 5801 5803 5805 5807 5808 5810 5812 5813 5816 5818 5819 5822 5824 5826 5828 5830 5832 5833 5832 5834 5835 5836 5839 5841 5843 5845 5846 5848 5850 5851 5853 5853 5854 5855 5856 5857 5857 5858 5859 5860 5861 5861 5862
5721 5722 5723 5724 5725 5727 5728 5729 5730 5732 5733 5735 5736 5738 5739 5741 5743 5744 5746 5748 5750 5752 5754 5756 5758 5760 5762 5763 5765 5767 5769 5771 5773 5774 5774 5775 5776 5778 5781 5784 5786 5788 5791 5793 5795 5798 5800 5802 5803 5805 5807 5808 5810 5812 5814 5816 5818 5820 5823 5825 5827 5829 5829 5829 5830 5832 5834 5837 5839 5841 5843 5844 5846 5847 5849 5851 5852 5853 5854 5854 5855 5855 5856 5857 5858 5859 5860 5861
5716 5717 5718 5719 5720 5721 5722 5724 5725 5726 5728 5729 5731 5732 5734 5736 5737 5739 5741 5743 5745 5747 5749 5751 5753 5755 5757 5758 5760 5763 5764 5767 5769 5770 5770 5771 5772 5776 5778 5780 5783 5785 5787 5789 5792 5794 5796 5799 5800 5802 5804 5805 5807 5809 5811 5813 5815 5817 5820 5822 5824 5825 5825 5825 5827 5830 5833 5835 5837 5838 5840 5841 5843 5845 5847 5849 5850 5851 5852 5852 5853 5854 5854 5855 5856 5857 5858 5860
5711 5712 5713 5714 5715 5716 5717 5718 5720 5721 5723 5724 5726 5727 5729 5730 5732 5733 5735 5737 5739 5741 5744 5745 5748 5750 5752 5754 5756 5758 5760 5762 5764 5766 5767 5767 5769 5773 5774 5777 5779 5781 5783 5785 5788 5790 5792 5795 5797 5799 5801 5802 5804 5806 5808 5810 5812 5814 5817 5819 5821 5821 5821 5822 5825 5827 5830 5832 5834 5836 5837 5839 5841 5843 5845 5847 5848 5849 5850 5850 5851 5852 5852 5853 5854 5856 5857 5858
5706 5707 5707 5708 5709 5710 5712 5713 5714 5716 5717 5719 5720 5722 5723 5725 5727 5728 5730 5732 5734 5736 5738 5740 5742 5745 5747 5749 5751 5754 5756 5757 5759 5761 5762 5763 5766 5769 5771 5773 5775 5777 5779 5781 5784 5787 5789 5791 5794 5796 5798 5799 5801 5803 5805 5807 5809 5811 5814 5816 5818 5817 5817 5820 5822 5825 5828 5830 5832 5833 5835 5837 5839 5841 5843 5844 5845 5846 5847 5848 5849 5849 5850 5851 5853 5854 5856 5857
5701 5702 5702 5703 5704 5705 5706 5707 5709 5710 5711 5713 5715 5716 5718 5719 5721 5723 5725 5727 5729 5731 5733 5735 5737 5739 5741 5744 5746 5749 5751 5752 5754 5757 5758 5760 5763 5765 5768 5770 5772 5774 5776 5778 5780 5783 5786 5788 5790 5793 5795 5796 5798 5800 5802 5804 5806 5808 5811 5813 5814 5814 5815 5817 5820 5823 5825 5827 5829 5831 5833 5835 5837 5838 5840 5842 5843 5844 5845 5846 5846 5847 5848 5850 5851 5853 5854 5854
5695 5696 5697 5697 5698 5699 5700 5701 5703 5704 5706 5707 5709 5710 5712 5714 5716 5718 5720 5722 5724 5726 5728 5730 5732 5734 5736 5739 5741 5743 5746 5747 5750 5752 5754 5756 5759 5761 5764 5766 5768 5770 5772 5774 5776 5779 5782 5785 5787 5789 5791 5793 5795 5797 5798 5801 5803 5805 5807 5810 5811 5811 5813 5815 5817 5820 5822 5825 5827 5829 5831 5833 5834 5836 5838 5840 5841 5842 5843 5844 5845 5846 5847 5849 5850 5851 5852 5852
5689 5690 5690 5691 5692 5693 5694 5695 5697 5698 5699 5701 5703 5704 5706 5708 5710 5712 5714 5716 5719 5721 5723 5725 5727 5729 5731 5734 5736 5738 5741 5742 5743 5747 5750 5753 5755 5757 5760 5762 5765 5767 5769 5771 5773 5776 5778 5781 5783 5786 5788 5790 5792 5794 5796 5798 5800 5802 5805 5807 5807 5808 5810 5812 5815 5817 5820 5822 5824 5827 5829 5830 5832 5834 5836 5837 5838 5840 5841 5842 5843 5844 5846 5847 5849 5849 5850 5850
5682 5683 5683 5684 5685 5686 5688 5689 5690 5692 5693 5695 5696 5698 5700 5702 5704 5706 5708 5711 5713 5715 5717 5720 5722 5724 5726 5728 5730 5733 5737 5737 5738 5743 5746 5749 5751 5753 5756 5759 5761 5763 5765 5766 5769 5771 5774 5778 5780 5782 5785 5787 5789 5790 5793 5795 5797 5800 5802 5803 5804 5805 5807 5810 5812 5815 5817 5819 5822 5824 5826 5828 5830 5832 5833 5835 5836 5837 5838 5840 5841 5843 5844 5846 5847 5847 5848 5848
5675 5675 5676 5677 5678 5679 5681 5682 5683 5685 5686 5688 5690 5692 5693 5696 5698 5700 5702 5704 5707 5709 5712 5714 5716 5719 5721 5723 5725 5728 5731 5732 5734 5739 5742 5744 5747 5749 5752 5754 5757 5759 5761 5763 5765 5768 5771 5774 5777 5779 5781 5784 5786 5787 5789 5791 5794 5797 5798 5799 5800 5802 5805 5807 5809 5811 5814 5816 5819 5822 5824 5826 5828 5830 5831 5832 5834 5835 5836 5838 5840 5841 5842 5844 5845 5845 5846 5846
5667 5668 5669 5670 5671 5672 5673 5675 5676 5678 5679 5681 5683 5685 5687 5689 5691 5693 5696 5698 5701 5703 5706 5709 5711 5713 5716 5718 5720 5723 5726 5727 5729 5733 5737 5740 5742 5745 5747 5750 5753 5755 5757 5759 5762 5765 5767 5770 5772 5775 5777 5780 5783 5784 5787 5789 5792 5794 5795 5796 5798 5799 5802 5804 5807 5809 5812 5814 5817 5819 5821 5823 5826 5827 5828 5830 5831 5832 5834 5836 5838 5839 5840 5842 5843 5843 5844 5844
5660 5660 5661 5662 5664 5665 5666 5667 5669 5671 5672 5674 5676 5678 5680 5682 5685 5687 5689 5692 5695 5697 5700 5703 5705 5708 5710 5713 5716 5718 5720 5722 5725 5728 5731 5735 5737 5740 5743 5746 5749 5751 5754 5756 5758 5761 5763 5766 5769 5772 5774 5777 5780 5781 5784 5786 5789 5791 5793 5794 5795 5797 5799 5802 5805 5807 5810 5812 5814 5817 5819 5821 5823 5825 5826 5827 5828 5830 5832 5834 5835 5837 5838 5840 5840 5841 5841 5842
5653 5653 5654 5655 5656 5657 5658 5660 5661 5663 5665 5667 5669 5671 5673 5676 5678 5680 5683 5685 5688 5691 5694 5696 5699 5702 5704 5708 5711 5712 5714 5717 5721 5723 5726 5730 5733 5735 5739 5742 5744 5747 5750 5751 5754 5756 5759 5762 5765 5768 5771 5774 5776 5778 5781 5783 5785 5789 5791 5792 5793 5794 5797 5800 5803 5805 5808 5810 5812 5816 5818 5819 5820 5822 5823 5824 5826 5828 5830 5832 5833 5834 5836 5837 5838 5838 5838 5839
5646 5646 5647 5648 5649 5650 5651 5652 5654 5656 5658 5659 5662 5664 5666 5669 5671 5674 5676 5679 5681 5684 5687 5690 5693 5696 5699 5703 5705 5705 5709 5713 5716 5717 5720 5725 5728 5731 5735 5737 5740 5743 5746 5748 5750 5753 5756 5759 5762 5764 5768 5771 5772 5775 5778 5780 5782 5786 5788 5790 5791 5792 5794 5797 5800 5803 5806 5808 5811 5814 5817 5817 5817 5819 5820 5822 5824 5826 5828 5830 5831 5832 5833 5834 5835 5835 5836 5837
5639 5639 5640 5641 5641 5643 5644 5645 5646 5648 5650 5652 5654 5657 5659 5661 5664 5667 5669 5672 5674 5677 5680 5683 5686 5689 5693 5697 5698 5700 5705 5708 5710 5712 5715 5720 5723 5726 5730 5733 5736 5739 5741 5744 5747 5750 5753 5756 5759 5762 5765 5767 5770 5773 5774 5776 5779 5782 5786 5787 5788 5790 5791 5793 5797 5800 5803 5806 5809 5812 5815 5814 5813 5816 5818 5819 5821 5824 5826 5828 5829 5829 5830 5831 5832 5833 5834 5835
5633 5633 5633 5634 5634 5635 5636 5638 5639 5641 5643 5645 5647 5649 5652 5654 5657 5659 5662 5664 5667 5670 5674 5677 5680 5683 5687 5690 5692 5695 5699 5702 5704 5707 5711 5715 5718 5722 5725 5728 5731 5734 5737 5740 5743 5746 5749 5752 5755 5758 5761 5764 5767 5769 5771 5774 5776 5779 5783 5785 5786 5788 5789 5791 5795 5798 5800 5804 5806 5809 5813 5811 5810 5813 5815 5816 5819 5822 5824 5825 5826 5827 5827 5829 5830 5831 5832 5833
5627 5626 5627 5627 5627 5628 5629 5630 5632 5633 5635 5637 5640 5642 5644 5647 5649 5652 5655 5658 5660 5663 5667 5670 5673 5677 5681 5684 5686 5689 5693 5696 5699 5702 5706 5710 5713 5717 5721 5723 5727 5729 5732 5736 5739 5741 5744 5747 5750 5753 5757 5760 5763 5765 5767 5770 5773 5777 5780 5781 5783 5785 5786 5789 5793 5796 5799 5802 5804 5806 5809 5807 5808 5811 5812 5814 5817 5819 5822 5823 5824 5825 5825 5827 5828 5829 5830 5830
5621 5620 5620 5620 5621 5621 5622 5623 5625 5627 5628 5630 5633 5635 5637 5639 5642 5645 5648 5651 5654 5657 5660 5663 5667 5671 5674 5678 5680 5683 5687 5691 5694 5698 5702 5705 5708 5712 5716 5719 5722 5725 5728 5731 5734 5737 5740 5743 5747 5750 5753 5756 5759 5761 5765 5768 5771 5774 5776 5778 5781 5783 5785 5788 5790 5793 5796 5799 5800 5803 5805 5804 5806 5809 5810 5812 5815 5817 5820 5820 5822 5822 5823 5826 5827 5827 5828 5828
5615 5614 5614 5614 5614 5615 5616 5617 5618 5620 5622 5624 5626 5628 5630 5633 5635 5638 5641 5644 5647 5650 5654 5657 5661 5664 5666 5670 5673 5677 5681 5684 5689 5693 5696 5700 5704 5708 5711 5714 5718 5721 5724 5727 5730 5733 5736 5739 5743 5745 5748 5752 5755 5759 5762 5764 5767 5771 5774 5776 5779 5781 5783 5785 5787 5790 5793 5796 5797 5800 5802 5802 5804 5806 5808 5810 5812 5815 5817 5818 5819 5820 5822 5824 5825 5825 5825 5826
5608 5608 5608 5608 5608 5609 5610 5611 5612 5614 5615 5617 5620 5622 5624 5626 5628 5631 5634 5637 5640 5643 5647 5650 5654 5656 5659 5663 5667 5671 5674 5678 5683 5687 5691 5695 5699 5703 5706 5710 5713 5717 5720 5723 5726 5729 5732 5735 5739 5742 5746 5750 5753 5756 5758 5760 5764 5768 5771 5774 5777 5779 5780 5782 5784 5788 5791 5794 5795 5796 5798 5799 5802 5804 5805 5808 5810 5813 5815 5815 5816 5818 5820 5821 5823 5823 5822 5823
5602 5602 5602 5602 5602 5603 5603 5604 5606 5607 5609 5611 5613 5615 5617 5619 5621 5624 5627 5630 5633 5636 5640 5643 5646 5649 5653 5657 5661 5665 5668 5672 5677 5681 5686 5690 5694 5698 5701 5705 5709 5712 5716 5719 5722 5725 5728 5731 5736 5740 5744 5747 5750 5753 5755 5758 5762 5765 5768 5771 5774 5776 5777 5779 5782 5785 5788 5790 5791 5792 5795 5797 5800 5802 5803 5805 5808 5810 5812 5813 5814 5815 5817 5819 5820 5820 5820 5821
5596 5595 5595 5595 5596 5596 5597 5598 5600 5601 5603 5605 5607 5608 5610 5612 5614 5617 5620 5622 5626 5629 5632 5636 5639 5643 5647 5651 5655 5658 5663 5668 5672 5676 5681 5685 5689 5693 5697 5701 5705 5709 5712 5714 5718 5722 5724 5728 5732 5736 5739 5742 5746 5749 5752 5756 5759 5762 5765 5768 5771 5773 5773 5775 5779 5781 5785 5787 5787 5790 5793 5795 5798 5800 5800 5803 5806 5808 5809 5810 5811 5812 5814 5816 5817 5817 5817 5818
5589 5589 5589 5589 5590 5590 5591 5592 5594 5595 5597 5598 5600 5602 5603 5605 5608 5610 5613 5616 5619 5622 5626 5630 5633 5638 5641 5645 5649 5653 5658 5662 5666 5671 5676 5680 5685 5689 5693 5697 5701 5704 5707 5711 5715 5718 5721 5725 5728 5731 5735 5740 5743 5746 5749 5752 5755 5759 5762 5765 5768 5769 5770 5773 5776 5778 5781 5784 5785 5788 5791 5793 5796 5797 5798 5800 5803 5805 5806 5807 5808 5809 5811 5812 5813 5813 5814 5815
5583 5583 5583 5583 5584 5585 5586 5587 5588 5590 5591 5593 5595 5596 5598 5600 5602 5604 5607 5610 5613 5616 5620 5623 5627 5632 5635 5639 5643 5648 5652 5657 5661 5666 5671 5676 5680 5684 5689 5693 5697 5700 5704 5708 5711 5714 5718 5722 5725 5729 5734 5737 5739 5742 5746 5749 5752 5755 5758 5762 5765 5766 5768 5770 5772 5776 5778 5780 5783 5786 5789 5790 5792 5794 5795 5797 5800 5801 5804 5805 5806 5807 5808 5809 5810 5810 5812 5813
5578 5578 5578 5578 5579 5580 5581 5582 5583 5585 5586 5588 5589 5591 5593 5595 5597 5599 5601 5604 5608 5611 5614 5617 5622 5627 5630 5634 5638 5642 5647 5651 5656 5661 5666 5671 5676 5680 5685 5689 5692 5696 5701 5705 5708 5712 5714 5717 5722 5728 5730 5733 5736 5739 5742 5746 5749 5752 5755 5759 5760 5762 5765 5767 5769 5773 5775 5777 5780 5784 5786 5788 5790 5791 5792 5794 5796 5798 5801 5803 5804 5805 5806 5806 5807 5808 5809 5810
5572 5573 5573 5574 5574 5575 5576 5577 5579 5580 5582 5584 5585 5587 5588 5590 5591 5594 5597 5600 5602 5605 5608 5612 5618 5622 5625 5629 5633 5638 5643 5648 5653 5657 5662 5667 5672 5677 5681 5685 5689 5693 5697 5701 5704 5708 5709 5713 5720 5723 5725 5730 5734 5737 5740 5743 5746 5749 5752 5754 5756 5759 5762 5764 5767 5771 5773 5775 5777 5782 5785 5787 5788 5788 5789 5791 5793 5796 5798 5800 5801 5802 5803 5804 5805 5806 5808 5809
5568 5568 5569 5570 5570 5572 5573 5574 5575 5577 5579 5580 5581 5583 5584 5586 5587 5589 5593 5596 5598 5601 5604 5608 5613 5617 5621 5625 5630 5635 5640 5644 5649 5653 5658 5663 5668 5672 5676 5681 5686 5689 5692 5696 5700 5702 5705 5710 5716 5718 5722 5727 5730 5734 5737 5740 5743 5745 5748 5751 5754 5757 5760 5762 5765 5769 5771 5771 5774 5779 5782 5784 5785 5785 5786 5788 5790 5793 5796 5798 5799 5800 5801 5802 5803 5805 5806 5807
5563 5564 5565 5566 5567 5568 5569 5571 5572 5574 5576 5577 5578 5579 5581 5583 5585 5587 5591 5594 5595 5597 5600 5604 5609 5613 5617 5621 5627 5632 5637 5642 5646 5650 5655 5660 5664 5669 5673 5677 5682 5685 5689 5694 5697 5698 5702 5709 5713 5716 5720 5724 5727 5731 5734 5737 5739 5741 5745 5748 5751 5755 5758 5760 5763 5766 5766 5767 5771 5775 5778 5780 5782 5783 5783 5785 5788 5790 5793 5795 5797 5798 5799 5800 5802 5803 5804 5805
5560 5561 5562 5563 5564 5566 5567 5569 5570 5572 5573 5575 5576 5578 5579 5581 5583 5586 5589 5591 5593 5594 5597 5601 5605 5609 5613 5618 5623 5628 5634 5640 5643 5648 5653 5656 5661 5666 5670 5674 5678 5682 5686 5691 5694 5695 5701 5707 5710 5714 5719 5722 5725 5727 5730 5733 5735 5738 5743 5746 5749 5752 5755 5756 5759 5762 5762 5765 5769 5771 5774 5778 5780 5781 5781 5782 5784 5787 5790 5792 5794 5795 5797 5798 5800 5801 5803 5804
5556 5557 5559 5560 5562 5563 5565 5567 5568 5570 5572 5573 5575 5576 5579 5581 5583 5585 5587 5590 5592 5592 5595 5598 5602 5606 5610 5615 5620 5625 5631 5635 5638 5644 5649 5653 5659 5663 5666 5671 5675 5678 5682 5687 5689 5691 5697 5703 5706 5710 5715 5717 5721 5724 5727 5729 5731 5736 5740 5742 5746 5749 5752 5753 5755 5757 5758 5761 5766 5768 5772 5776 5778 5778 5778 5779 5781 5784 5787 5790 5791 5793 5795 5796 5798 5800 5801 5802
5553 5554 5556 5558 5559 5561 5563 5565 5567 5569 5570 5572 5574 5576 5578 5580 5581 5584 5585 5588 5590 5591 5593 5597 5600 5605 5609 5613 5619 5623 5627 5630 5635 5640 5644 5649 5654 5658 5662 5666 5670 5674 5678 5682 5684 5687 5694 5698 5701 5705 5709 5711 5715 5719 5722 5725 5728 5732 5735 5739 5742 5746 5748 5751 5753 5754 5755 5759 5763 5765 5769 5773 5775 5775 5775 5777 5779 5782 5785 5787 5789 5791 5793 5795 5797 5798 5799 5800
5549 5551 5553 5555 5557 5559 5561 5563 5565 5567 5569 5571 5573 5575 5577 5579 5580 5582 5584 5587 5588 5590 5592 5595 5598 5603 5607 5612 5618 5622 5625 5628 5632 5637 5641 5645 5650 5654 5658 5662 5665 5669 5673 5678 5681 5685 5691 5694 5696 5701 5704 5708 5711 5713 5716 5720 5724 5728 5731 5735 5738 5742 5745 5746 5749 5751 5754 5759 5761 5762 5767 5770 5771 5771 5773 5775 5777 5780 5782 5784 5787 5789 5791 5793 5795 5796 5797 5798
5547 5549 5551 5553 5555 5557 5559 5562 5564 5566 5568 5570 5572 5574 5576 5577 5579 5581 5583 5585 5586 5588 5590 5593 5596 5600 5604 5609 5614 5619 5624 5628 5632 5636 5640 5645 5649 5653 5657 5660 5663 5667 5671 5675 5678 5682 5687 5689 5692 5697 5700 5704 5707 5709 5712 5716 5720 5724 5728 5731 5735 5738 5740 5743 5746 5748 5752 5756 5756 5759 5764 5767 5767 5768 5771 5772 5775 5777 5780 5782 5785 5787 5789 5791 5793 5794 5795 5796
5544 5546 5548 5551 5553 5555 5557 5560 5562 5564 5566 5568 5571 5573 5574 5576 5577 5579 5582 5583 5584 5586 5588 5591 5596 5600 5604 5607 5612 5616 5621 5626 5630 5634 5638 5642 5646 5650 5654 5657 5661 5666 5671 5675 5677 5681 5684 5685 5689 5693 5696 5700 5704 5707 5711 5716 5719 5722 5725 5729 5733 5736 5739 5742 5745 5747 5751 5753 5753 5757 5761 5763 5764 5766 5767 5770 5773 5775 5778 5780 5782 5785 5787 5789 5790 5792 5792 5793
5541 5544 5546 5548 5551 5553 5555 5557 5560 5562 5564 5567 5569 5571 5573 5575 5577 5579 5580 5581 5583 5586 5588 5592 5596 5601 5604 5607 5611 5615 5620 5624 5628 5633 5636 5640 5643 5647 5651 5655 5659 5664 5668 5672 5676 5680 5683 5686 5689 5691 5694 5698 5702 5705 5709 5713 5717 5721 5724 5727 5730 5735 5738 5741 5743 5746 5749 5750 5751 5754 5757 5759 5762 5763 5765 5768 5771 5773 5776 5778 5780 5782 5784 5786 5787 5789 5790 5791
5539 5541 5544 5546 5549 5551 5553 5555 5557 5559 5562 5565 5567 5569 5571 5574 5576 5577 5578 5580 5582 5585 5588 5592 5597 5601 5604 5607 5610 5614 5618 5622 5627 5631 5635 5639 5643 5647 5650 5654 5657 5662 5666 5670 5673 5677 5681 5684 5686 5690 5694 5697 5701 5704 5707 5711 5714 5717 5721 5724 5728 5733 5735 5737 5741 5744 5746 5747 5749 5752 5754 5757 5759 5761 5763 5766 5768 5771 5773 5775 5777 5779 5781 5783 5785 5786 5787 5788
5536 5539 5541 5544 5546 5548 5550 5552 5554 5557 5559 5562 5564 5567 5570 5572 5574 5575 5577 5579 5582 5584 5588 5591 5595 5599 5603 5607 5610 5613 5616 5620 5625 5629 5633 5637 5641 5645 5648 5652 5656 5661 5665 5669 5671 5675 5679 5681 5683 5689 5693 5696 5699 5702 5706 5709 5711 5714 5718 5722 5726 5729 5730 5734 5738 5740 5743 5746 5748 5750 5752 5754 5757 5759 5760 5763 5766 5769 5771 5773 5775 5777 5779 5781 5782 5783 5785 5785
5534 5537 5539 5542 5543 5545 5547 5549 5552 5554 5557 5560 5562 5566 5569 5571 5572 5574 5575 5578 5581 5584 5587 5590 5594 5597 5601 5606 5610 5614 5617 5620 5623 5628 5632 5636 5639 5642 5646 5649 5654 5659 5663 5666 5670 5673 5677 5679 5683 5687 5690 5693 5697 5699 5702 5705 5708 5713 5718 5720 5723 5726 5728 5732 5735 5736 5741 5744 5745 5747 5750 5752 5755 5757 5758 5761 5764 5767 5769 5771 5773 5775 5777 5778 5779 5781 5782 5783
5532 5535 5537 5539 5541 5543 5545 5547 5549 5552 5555 5558 5561 5565 5567 5569 5571 5572 5574 5577 5580 5583 5586 5590 5593 5596 5599 5604 5609 5613 5617 5620 5623 5627 5630 5634 5638 5641 5644 5647 5652 5656 5659 5664 5668 5671 5674 5677 5680 5684 5687 5691 5693 5695 5699 5702 5705 5710 5714 5717 5722 5725 5728 5731 5733 5736 5740 5742 5743 5746 5748 5750 5753 5755 5758 5760 5763 5765 5768 5770 5771 5773 5774 5775 5777 5778 5779 5780
5530 5533 5535 5537 5539 5541 5543 5546 5548 5551 5555 5558 5561 5564 5566 5568 5570 5572 5574 5577 5580 5583 5586 5589 5592 5595 5598 5602 5606 5612 5616 5620 5623 5626 5629 5632 5636 5639 5642 5646 5649 5653 5657 5661 5665 5668 5672 5675 5678 5681 5684 5687 5689 5693 5697 5701 5703 5706 5709 5714 5718 5721 5725 5729 5731 5734 5738 5740 5742 5744 5746 5748 5751 5754 5756 5758 5761 5764 5766 5767 5769 5770 5771 5773 5774 5775 5776 5777
5528 5531 5533 5535 5537 5540 5542 5545 5548 5551 5554 5557 5560 5562 5565 5567 5569 5571 5574 5577 5579 5582 5585 5588 5591 5594 5597 5601 5605 5610 5615 5619 5622 5625 5628 5631 5634 5638 5641 5644 5648 5651 5654 5658 5661 5666 5669 5673 5676 5679 5682 5685 5688 5692 5696 5699 5703 5706 5710 5714 5716 5718 5722 5725 5727 5730 5734 5737 5739 5742 5745 5746 5749 5752 5753 5755 5758 5761 5763 5764 5766 5767 5768 5770 5771 5772 5774 5774
5526 5529 5531 5534 5536 5539 5542 5545 5547 5550 5553 5556 5558 5561 5564 5567 5569 5572 5574 5576 5578 5581 5583 5586 5590 5594 5598 5601 5605 5609 5613 5617 5621 5624 5627 5630 5633 5637 5640 5644 5647 5649 5653 5656 5660 5664 5667 5671 5675 5678 5682 5684 5687 5690 5694 5697 5701 5705 5710 5713 5716 5719 5721 5724 5726 5728 5731 5734 5737 5741 5742 5742 5745 5748 5750 5753 5756 5758 5759 5761 5762 5764 5766 5767 5768 5769 5770 5771
5525 5528 5530 5533 5536 5539 5542 5544 5547 5550 5553 5556 5559 5561 5564 5567 5570 5572 5574 5576 5577 5579 5582 5585 5588 5593 5597 5601 5604 5608 5612 5616 5619 5623 5626 5629 5632 5635 5639 5642 5645 5648 5651 5655 5659 5662 5666 5670 5674 5677 5680 5684 5687 5690 5693 5696 5700 5703 5707 5710 5714 5717 5720 5723 5726 5727 5729 5732 5735 5738 5739 5739 5742 5745 5747 5750 5753 5754 5756 5758 5759 5761 5762 5764 5765 5766 5767 5768
5524 5527 5530 5533 5536 5539 5542 5544 5547 5550 5553 5556 5559 5562 5565 5568 5570 5572 5574 5576 5576 5578 5580 5583 5587 5591 5596 5599 5603 5607 5611 5614 5617 5621 5624 5627 5630 5633 5637 5640 5644 5647 5650 5654 5657 5661 5664 5669 5672 5675 5678 5681 5685 5688 5690 5693 5696 5700 5704 5707 5711 5714 5717 5721 5724 5725 5726 5729 5732 5735 5736 5737 5739 5742 5744 5747 5749 5751 5753 5754 5756 5758 5759 5760 5761 5762 5763 5764
5523 5526 5530 5533 5535 5539 5542 5545 5547 5550 5554 5557 5560 5563 5566 5568 5570 5572 5574 5575 5575 5577 5579 5582 5586 5590 5594 5598 5602 5606 5610 5613 5616 5620 5622 5625 5629 5632 5635 5638 5642 5646 5650 5653 5657 5660 5664 5667 5670 5673 5676 5678 5681 5684 5686 5690 5694 5698 5702 5705 5708 5711 5714 5718 5721 5721 5723 5726 5729 5732 5734 5734 5736 5739 5741 5743 5745 5747 5749 5750 5752 5754 5755 5756 5757 5758 5759 5760
5523 5527 5530 5533 5536 5539 5541 5544 5547 5551 5555 5558 5561 5564 5566 5568 5571 5572 5574 5574 5575 5576 5579 5582 5586 5589 5593 5597 5601 5605 5608 5612 5616 5619 5621 5624 5627 5630 5633 5637 5641 5645 5649 5652 5655 5658 5662 5666 5669 5672 5675 5678 5681 5683 5685 5689 5693 5697 5700 5702 5705 5709 5712 5716 5718 5719 5722 5724 5726 5729 5731 5732 5734 5736 5738 5740 5742 5744 5746 5747 5749 5750 5751 5752 5753 5755 5755 5756
5523 5527 5530 5533 5536 5538 5541 5544 5548 5552 5555 5558 5561 5564 5566 5569 5571 5572 5573 5574 5575 5577 5580 5583 5586 5589 5593 5597 5601 5605 5608 5611 5615 5618 5621 5623 5626 5629 5633 5636 5640 5644 5647 5651 5654 5657 5661 5664 5667 5670 5673 5676 5679 5682 5685 5689 5693 5696 5698 5701 5704 5707 5710 5713 5715 5718 5720 5722 5724 5726 5728 5730 5731 5733 5735 5737 5738 5740 5742 5743 5745 5746 5747 5749 5750 5751 5752 5753
5524 5527 5530 5533 5536 5539 5541 5545 5549 5552 5555 5558 5562 5565 5567 5570 5571 5572 5573 5574 5576 5579 5581 5584 5586 5589 5593 5597 5601 5605 5608 5611 5614 5616 5620 5623 5625 5629 5632 5636 5639 5643 5646 5649 5652 5656 5660 5663 5666 5670 5672 5674 5677 5681 5685 5688 5691 5694 5697 5700 5703 5705 5708 5711 5713 5715 5717 5719 5721 5723 5725 5726 5728 5730 5732 5734 5735 5737 5738 5739 5741 5743 5744 5746 5747 5748 5749 5750
5524 5527 5530 5533 5536 5539 5542 5546 5550 5553 5556 5559 5562 5566 5568 5570 5572 5572 5573 5575 5577 5580 5582 5584 5587 5589 5593 5597 5601 5605 5608 5610 5613 5616 5619 5623 5626 5628 5632 5635 5638 5642 5645 5648 5651 5655 5659 5662 5665 5669 5671 5674 5677 5680 5684 5687 5690 5693 5696 5699 5701 5704 5706 5709 5711 5713 5715 5717 5718 5720 5721 5724 5726 5727 5729 5731 5732 5734 5735 5736 5738 5739 5741 5743 5744 5745 5746 5747
5525 5528 5531 5534 5536 5540 5543 5547 5550 5554 5558 5561 5564 5567 5569 5572 5573 5573 5573 5575 5578 5581 5583 5585 5587 5589 5593 5597 5602 5606 5609 5612 5615 5618 5620 5623 5626 5629 5632 5635 5638 5641 5644 5647 5651 5654 5657 5661 5664 5667 5670 5673 5676 5680 5683 5686 5689 5692 5694 5697 5699 5702 5704 5707 5709 5711 5713 5714 5716 5718 5720 5722 5723 5725 5727 5728 5729 5731 5732 5734 5735 5737 5738 5740 5741 5742 5744 5744
5526 5529 5532 5535 5537 5541 5544 5548 5551 5555 5559 5562 5565 5568 5570 5573 5574 5574 5574 5576 5579 5582 5584 5586 5589 5591 5594 5598 5602 5607 5611 5614 5617 5619 5622 5624 5627 5629 5633 5637 5640 5642 5644 5647 5650 5654 5657 5660 5663 5666 5669 5672 5675 5678 5681 5684 5687 5690 5693 5695 5697 5700 5702 5704 5706 5708 5710 5712 5714 5716 5718 5720 5721 5723 5724 5725 5727 5728 5730 5731 5733 5734 5736 5737 5738 5740 5741 5741
5527 5530 5533 5536 5539 5543 5546 5549 5553 5557 5560 5564 5566 5569 5571 5574 5576 5577 5576 5578 5581 5583 5585 5588 5591 5594 5596 5599 5602 5606 5610 5613 5616 5619 5622 5625 5627 5630 5633 5637 5640 5642 5645 5648 5650 5653 5657 5660 5663 5666 5668 5671 5674 5677 5680 5683 5686 5688 5690 5693 5695 5698 5700 5702 5704 5706 5708 5710 5712 5714 5716 5718 5719 5721 5722 5723 5725 5726 5728 5729 5730 5732 5733 5734 5735 5737 5737 5738